Le nostre stazioni meteo in Italia

Pubblicità
Il mio iltempo24.it
Gioia Del Colle, Italia (16312): Temperatura & dewpoint: 17.07.2019 06:00:00 - 23.07.2019 06:00:00 (CEST)Gioia Del Colle, Italia (16312): velocità del vento: 17.07.2019 06:00:00 - 23.07.2019 06:00:00 (CEST)Gioia Del Colle, Italia (16312): direzione del vento: 17.07.2019 06:00:00 - 23.07.2019 06:00:00 (CEST)Gioia Del Colle, Italia (16312): reduced air pressure: 17.07.2019 06:00:00 - 23.07.2019 06:00:00 (CEST)Gioia Del Colle, Italia (16312): visibility: 17.07.2019 06:00:00 - 23.07.2019 06:00:00 (CEST)
Data & Tempo tt [°C] td [°C] ff [km/h] ff [kn] dd ppp [hPa] vv [km]
23.07.2019 06:00:00 - - - - - - -
23.07.2019 05:00:00 22,0 16,3 11 6 NNO 1016,8 10
23.07.2019 04:00:00 22,0 14,0 21 11 NO - 10
23.07.2019 03:00:00 22,0 14,0 21 11 ONO - 10
23.07.2019 02:00:00 22,4 18,0 18 10 NNO 1017,4 10
23.07.2019 01:00:00 22,0 20,0 21 11 NNO - 10
23.07.2019 00:00:00 22,0 22,0 21 11 NNO - 10
22.07.2019 23:00:00 22,0 21,3 15 8 NNO 1018,2 10
22.07.2019 22:00:00 22,0 21,0 15 8 N - 10
22.07.2019 21:00:00 24,0 22,0 15 8 N - 10
22.07.2019 20:00:00 25,6 20,4 21 11 N 1016,8 10
22.07.2019 19:00:00 28,0 17,0 18 10 N - 10
22.07.2019 18:00:00 30,0 15,0 18 10 NNO - 10
22.07.2019 17:00:00 31,0 14,2 22 12 N 1016,1 10
22.07.2019 16:00:00 32,0 14,0 18 10 NNO - 10
22.07.2019 15:00:00 30,0 13,0 21 11 NNO - 10
22.07.2019 14:00:00 30,0 12,0 21 11 NNO 1017,5 10
22.07.2019 13:00:00 30,0 13,0 18 10 NNO - 10
22.07.2019 12:00:00 28,0 12,0 22 12 N - 10
22.07.2019 11:00:00 28,0 13,5 21 11 NNO 1018,1 10
22.07.2019 10:00:00 28,0 15,0 16 9 NNO - 10
22.07.2019 09:00:00 26,0 14,0 13 7 N - 10
22.07.2019 08:00:00 24,4 13,9 11 6 NNO 1018,4 10
22.07.2019 07:00:00 20,0 14,0 4 2 NO - 10
22.07.2019 06:00:00 18,0 12,0 8 4 NNO - 10
22.07.2019 05:00:00 17,0 12,7 2 1 - 1019,5 10
22.07.2019 04:00:00 17,0 14,0 2 1 - - 10
22.07.2019 03:00:00 18,0 15,0 4 2 NO - 10
22.07.2019 02:00:00 17,6 14,1 4 2 N 1019,6 10
22.07.2019 01:00:00 19,0 14,0 4 2 ONO - 10
22.07.2019 00:00:00 19,0 14,0 2 1 - - 10
21.07.2019 23:00:00 20,4 13,8 4 2 O 1019,1 10
21.07.2019 22:00:00 22,0 13,0 5 3 NO - 10
21.07.2019 21:00:00 24,0 11,0 5 3 NNE - 10
21.07.2019 20:00:00 26,4 9,3 11 6 NNE 1017,0 10
21.07.2019 19:00:00 28,0 9,0 13 7 N - 10
21.07.2019 18:00:00 30,0 9,0 15 8 N - 10
21.07.2019 17:00:00 31,0 9,3 13 7 N 1016,8 10
21.07.2019 16:00:00 32,0 11,0 16 9 N - 10
21.07.2019 15:00:00 30,0 9,0 16 9 NNE - 10
21.07.2019 14:00:00 29,0 9,2 13 7 N 1017,6 10
21.07.2019 13:00:00 28,0 8,0 13 7 NNO - 10
21.07.2019 12:00:00 28,0 9,0 11 6 N - 10
21.07.2019 11:00:00 27,0 8,9 11 6 N 1017,9 10
21.07.2019 10:00:00 26,0 11,0 11 6 N - 10
21.07.2019 09:00:00 25,0 12,0 9 5 N - 10
21.07.2019 08:00:00 22,0 15,8 4 2 NO 1018,5 10
21.07.2019 07:00:00 19,0 14,0 0 0 N - 10
21.07.2019 06:00:00 17,0 14,0 0 0 N - 10
21.07.2019 05:00:00 17,0 13,7 4 2 NE 1018,7 10
21.07.2019 04:00:00 17,0 15,0 2 1 - - 10
21.07.2019 03:00:00 18,0 15,0 2 1 - - 10
21.07.2019 02:00:00 19,4 15,1 2 1 N 1018,7 10
21.07.2019 01:00:00 20,0 15,0 2 1 - - 10
21.07.2019 00:00:00 20,0 16,0 4 2 SSO - 10
20.07.2019 23:00:00 21,2 15,5 4 2 SO 1018,4 10
20.07.2019 22:00:00 23,0 15,0 5 3 SSE - 10
20.07.2019 21:00:00 24,0 13,0 4 2 E - 10
20.07.2019 20:00:00 25,0 12,6 9 5 N 1017,3 10
20.07.2019 19:00:00 27,0 13,0 15 8 N - 10
20.07.2019 18:00:00 29,0 9,0 11 6 S - 10
20.07.2019 17:00:00 29,4 11,5 13 7 SSE 1016,4 10
20.07.2019 16:00:00 29,0 15,0 11 6 N - 10
20.07.2019 15:00:00 30,0 11,0 8 4 NNE - 10
20.07.2019 14:00:00 29,2 9,4 9 5 NNO 1016,7 10
20.07.2019 13:00:00 28,0 10,0 8 4 NE - 10
20.07.2019 12:00:00 27,0 10,0 11 6 N - 10
20.07.2019 11:00:00 26,2 10,0 8 4 NNO 1017,0 10
20.07.2019 10:00:00 25,0 10,0 9 5 N - 10
20.07.2019 09:00:00 24,0 13,0 9 5 N - 10
20.07.2019 08:00:00 21,0 15,1 4 2 - 1017,2 10
20.07.2019 07:00:00 18,0 15,0 2 1 - - 10
20.07.2019 06:00:00 15,0 13,0 4 2 - - 10
20.07.2019 05:00:00 15,0 12,9 2 1 N 1016,9 10
20.07.2019 04:00:00 16,0 14,0 2 1 - - 10
20.07.2019 03:00:00 16,0 15,0 4 2 - - 10
20.07.2019 02:00:00 17,0 15,4 2 1 N 1016,7 10
20.07.2019 01:00:00 17,0 16,0 2 1 - - 10
20.07.2019 00:00:00 19,0 17,0 2 1 - - 10
19.07.2019 23:00:00 19,6 15,7 5 3 O 1016,6 10
19.07.2019 22:00:00 22,0 14,0 4 2 ONO - 10
19.07.2019 21:00:00 23,0 10,0 4 2 NNE - 10
19.07.2019 20:00:00 24,2 6,9 9 5 NNE 1014,5 10
19.07.2019 19:00:00 26,0 5,0 13 7 NNE - 10
19.07.2019 18:00:00 27,0 5,0 16 9 N - 10
19.07.2019 17:00:00 27,0 5,3 16 9 N 1013,3 12
19.07.2019 16:00:00 28,0 6,0 11 6 NNE - 10
19.07.2019 15:00:00 30,0 2,0 15 8 N - 10
19.07.2019 14:00:00 32,2 5,7 11 6 NNE 1013,3 12
19.07.2019 13:00:00 31,0 8,0 13 7 N - 10
19.07.2019 12:00:00 29,0 9,0 11 6 N - 10
19.07.2019 11:00:00 26,4 9,3 13 7 NNE 1014,0 12
19.07.2019 10:00:00 25,0 12,0 13 7 NNE - 10
19.07.2019 09:00:00 23,0 13,0 9 5 N - 10
19.07.2019 08:00:00 21,0 15,1 4 2 N 1013,7 10
19.07.2019 07:00:00 18,0 15,0 2 1 - - 10
19.07.2019 06:00:00 17,0 14,0 2 1 - - 10
19.07.2019 05:00:00 16,0 15,4 2 1 - 1014,0 10
19.07.2019 04:00:00 16,0 15,0 2 1 NNE - 10
19.07.2019 03:00:00 16,0 15,0 5 3 O - 10
19.07.2019 02:00:00 16,4 15,1 4 2 O 1014,2 10
19.07.2019 01:00:00 17,0 17,0 4 2 O - 10
19.07.2019 00:00:00 17,0 17,0 4 2 SSO - 10
18.07.2019 23:00:00 18,0 16,3 4 2 SSO 1013,1 10
18.07.2019 22:00:00 19,0 16,0 4 2 S - 10
18.07.2019 21:00:00 20,0 14,0 9 5 SSE - 10
18.07.2019 20:00:00 22,8 10,9 13 7 S 1011,0 10
18.07.2019 19:00:00 26,0 9,0 16 9 S - 10
18.07.2019 18:00:00 27,0 8,0 9 5 ESE - 10
18.07.2019 17:00:00 28,2 7,4 11 6 S 1010,0 10
18.07.2019 16:00:00 30,0 8,0 11 6 SSE - 10
18.07.2019 15:00:00 29,0 9,0 11 6 NNE - 10
18.07.2019 14:00:00 29,6 8,1 5 3 S 1010,2 10
18.07.2019 13:00:00 27,0 7,0 9 5 E - 10
18.07.2019 12:00:00 26,0 6,0 8 4 S - 10
18.07.2019 11:00:00 25,4 5,1 5 3 - 1010,7 10
18.07.2019 10:00:00 24,0 6,0 8 4 S - 10
18.07.2019 09:00:00 23,0 8,0 8 4 SSO - 10
18.07.2019 08:00:00 19,6 14,0 2 1 N 1011,0 10
18.07.2019 07:00:00 17,0 14,0 2 1 - - 10
18.07.2019 06:00:00 14,0 14,0 2 1 - - 10
18.07.2019 05:00:00 14,0 13,5 4 2 O 1011,6 10
18.07.2019 04:00:00 15,0 14,0 2 1 - - 10
18.07.2019 03:00:00 15,0 14,0 4 2 ONO - 10
18.07.2019 02:00:00 16,4 14,2 8 4 ONO 1011,5 10
18.07.2019 01:00:00 17,0 14,0 5 3 ONO - 10
18.07.2019 00:00:00 17,0 14,0 4 2 NO - 10
17.07.2019 23:00:00 17,8 13,7 9 5 NO 1011,3 10
17.07.2019 22:00:00 20,0 13,0 8 4 N - 10
17.07.2019 21:00:00 21,0 11,0 8 4 NNO - 10
17.07.2019 20:00:00 22,4 9,6 16 9 N 1010,3 10
17.07.2019 19:00:00 24,0 10,0 18 10 N - 10
17.07.2019 18:00:00 25,0 9,0 22 12 NNO - 10
17.07.2019 17:00:00 26,4 8,9 22 12 N 1009,8 10
17.07.2019 16:00:00 28,0 7,0 18 10 N - 10
17.07.2019 15:00:00 26,0 7,0 16 9 NNO - 10
17.07.2019 14:00:00 25,0 7,6 16 9 NNO 1010,6 10
17.07.2019 13:00:00 24,0 8,0 21 11 N - 10
17.07.2019 12:00:00 24,0 9,0 21 11 NNO - 10
17.07.2019 11:00:00 23,0 11,4 18 10 NNO 1010,9 10
17.07.2019 10:00:00 22,0 12,0 18 10 NNO - 10
17.07.2019 09:00:00 21,0 16,0 21 11 ONO - 10
17.07.2019 08:00:00 20,0 16,4 18 10 NNO 1010,8 10
17.07.2019 07:00:00 19,0 15,0 16 9 NNO - 10
17.07.2019 06:00:00 18,0 14,0 8 4 ONO - 10

tt = Temperatura
td = dewpoint
ff = velocità del vento
dd = direzione del vento
ppp = reduced air pressure
vv = visibility

Stazioni seguenti

WeatherPro
AMSI
MeteoEarth